Regional Weather Roundup
Issued by NWS

Home | Current Version | Previous Version | Text Only | Print | Product List | Glossary On
Versions: 1 2 3 4 5 6 7 8 9 10 11 12 13 14 15 16 17 18 19 20 21 22 23 24 25 26 27 28 29 30 31 32 33 34 35 36 37 38 39 40 41 42 43 44 45 46 47 48 49 50
000
ASCA42 TJSJ 291611
RWRPR
PUERTO RICO/U.S. VIRGIN ISLANDS HOURLY WEATHER ROUNDUP
NATIONAL WEATHER SERVICE SAN JUAN PR
1200 PM AST THU JAN 29 2015

PRZ001-004-291700-
PUERTO RICO

CITY           SKY/WX    TMP DP  RH WIND       PRES   REMARKS
SAN JUAN LMM   MOSUNNY   82  72  69 NE13      30.03F
PONCE          PTSUNNY   84  70  61 S12       30.00S
MAYAGUEZ       MOSUNNY   84  64  51 W8        30.06
AGUADILLA      SUNNY     82  70  65 E10       30.05F
CEIBA          PTSUNNY   82  70  65 E9        30.06F
$$

PRZ006-007-291700-
U.S. VIRGIN ISLANDS

CITY           SKY/WX    TMP DP  RH WIND       PRES   REMARKS
$$

HOURLY WEATHER ROUNDUP FOR THE NEWS MEDIA

CITY           SKY/WX    TMP DP  RH WIND       PRES   REMARKS
MIAMI          PTSUNNY   70  48  45 NE14G22   30.27R
ORLANDO        SUNNY     63  48  58 CALM      30.32F
NEW YORK       PTSUNNY   29   6  38 CALM      30.33S
NEWARK         PTSUNNY   27   6  41 CALM      30.32S
CHICAGO        CLOUDY    33  27  78 NW23      29.86R WCI  21
HARTFORD       SUNNY     28   9  44 CALM      30.29F
BOSTON         MOSUNNY   28   6  39 CALM      30.32F
DALLAS         PTSUNNY   63  38  39 N12       30.27R
PHILADELPHIA   PTSUNNY   31   4  31 SE6       30.32F WCI  25


USA.gov is the U.S. government's official web portal to all federal, state and local government web resources and services.